TGW534 WSSS-RPMD

Flight info

Callsign TGW534
Flight time N/A
Altitude 37000
Route TOMAN5B TOMAN M646 BRU W461 VSN A341 ZAM W10 LINAO LINAO2R
Aircraft A21N/M-SDE2FGHIJ3J7RWYZ/LB1D1

Departure

Time N/A
Airport Singapore Changi Airport (WSSS)

Arrival

Time 2026-05-06 12:19
Airport Francisco Bangoy International Airport (RPMD)
Time Latitude Longitude Altitude Speed Heading
2026-05-06 09:24 1.57637 106.33792 36366 ft 455 kts 69°
2026-05-06 09:24 1.58760 106.36706 36508 ft 455 kts 69°
2026-05-06 09:24 1.59900 106.39653 36661 ft 454 kts 69°
2026-05-06 09:24 1.61036 106.42594 36802 ft 452 kts 69°
2026-05-06 09:25 1.62160 106.45505 36808 ft 447 kts 69°
2026-05-06 09:25 1.64399 106.51283 36785 ft 445 kts 69°
2026-05-06 09:26 1.66642 106.57058 36780 ft 446 kts 69°
2026-05-06 09:26 1.68881 106.62832 36780 ft 446 kts 69°
2026-05-06 09:27 1.71135 106.68608 36779 ft 446 kts 69°
2026-05-06 09:27 1.73386 106.74386 36780 ft 446 kts 69°
2026-05-06 09:28 1.75625 106.80167 36780 ft 446 kts 69°
2026-05-06 09:28 1.77859 106.85945 36782 ft 446 kts 69°
2026-05-06 09:29 1.80094 106.91731 36782 ft 446 kts 69°
2026-05-06 09:29 1.82317 106.97518 36782 ft 446 kts 69°
2026-05-06 09:30 1.84551 107.03300 36781 ft 446 kts 69°
2026-05-06 09:30 1.86794 107.09084 36781 ft 446 kts 69°
2026-05-06 09:31 1.89033 107.14867 36778 ft 446 kts 69°
2026-05-06 09:31 1.91255 107.20654 36781 ft 446 kts 69°
2026-05-06 09:32 1.93483 107.26449 36782 ft 446 kts 69°
2026-05-06 09:32 1.95717 107.32231 36783 ft 446 kts 69°
2026-05-06 09:33 1.97957 107.38014 36779 ft 446 kts 69°
2026-05-06 09:33 2.00193 107.43797 36780 ft 446 kts 69°
2026-05-06 09:34 2.02446 107.49574 36782 ft 446 kts 69°
2026-05-06 09:34 2.04707 107.55349 36782 ft 446 kts 69°
2026-05-06 09:35 2.06951 107.61129 36778 ft 446 kts 69°
2026-05-06 09:35 2.09200 107.66907 36778 ft 446 kts 69°
2026-05-06 09:36 2.11455 107.72681 36778 ft 446 kts 69°
2026-05-06 09:36 2.13711 107.78459 36782 ft 446 kts 69°
2026-05-06 09:37 2.15962 107.84235 36770 ft 446 kts 69°
2026-05-06 09:37 2.18177 107.89985 36772 ft 446 kts 69°
2026-05-06 09:38 2.20426 107.95807 36768 ft 446 kts 69°
2026-05-06 09:38 2.22657 108.01549 36769 ft 447 kts 69°
2026-05-06 09:39 2.24903 108.07335 36770 ft 446 kts 69°
2026-05-06 09:39 2.27139 108.13126 36770 ft 446 kts 69°
2026-05-06 09:40 2.29363 108.18908 36774 ft 446 kts 69°
2026-05-06 09:40 2.32728 108.27628 36770 ft 446 kts 69°
2026-05-06 09:41 2.34946 108.33382 36774 ft 446 kts 69°
2026-05-06 09:41 2.37173 108.39167 36768 ft 446 kts 69°
2026-05-06 09:42 2.39407 108.44953 36768 ft 446 kts 69°
2026-05-06 09:42 2.41646 108.50739 36770 ft 446 kts 69°
2026-05-06 09:43 2.43863 108.56527 36770 ft 446 kts 69°
2026-05-06 09:43 2.46094 108.62318 36771 ft 446 kts 69°
2026-05-06 09:44 2.48323 108.68100 36770 ft 446 kts 69°
2026-05-06 09:44 2.50552 108.73887 36767 ft 446 kts 69°
2026-05-06 09:45 2.52785 108.79668 36760 ft 446 kts 69°
2026-05-06 09:45 2.55021 108.85450 36760 ft 446 kts 69°
2026-05-06 09:46 2.57250 108.91234 36763 ft 446 kts 69°
2026-05-06 09:46 2.59484 108.97022 36786 ft 446 kts 69°
2026-05-06 09:47 2.61713 109.02761 36789 ft 445 kts 69°
2026-05-06 09:47 2.63975 109.08533 36791 ft 446 kts 69°
2026-05-06 09:48 2.66220 109.14304 36789 ft 446 kts 69°
2026-05-06 09:48 2.68459 109.20095 36789 ft 446 kts 69°
2026-05-06 09:49 2.70704 109.25870 36789 ft 445 kts 69°
2026-05-06 09:49 2.72950 109.31648 36790 ft 446 kts 69°
2026-05-06 09:50 2.75190 109.37430 36790 ft 445 kts 69°
2026-05-06 09:50 2.77433 109.43203 36789 ft 445 kts 69°
2026-05-06 09:51 2.79675 109.48980 36781 ft 446 kts 69°
2026-05-06 09:51 2.81919 109.54759 36779 ft 446 kts 69°
2026-05-06 09:52 2.84164 109.60536 36779 ft 445 kts 69°
2026-05-06 09:52 2.86404 109.66313 36779 ft 445 kts 69°
2026-05-06 09:53 2.88647 109.72094 36778 ft 446 kts 69°
2026-05-06 09:53 2.90890 109.77879 36781 ft 446 kts 69°
2026-05-06 09:54 2.93130 109.83662 36780 ft 446 kts 69°
2026-05-06 09:54 2.95383 109.89445 36779 ft 446 kts 69°
2026-05-06 09:55 2.97624 109.95225 36780 ft 446 kts 69°
2026-05-06 09:55 2.99863 110.01017 36780 ft 446 kts 69°
2026-05-06 09:56 3.02091 110.06766 36780 ft 446 kts 69°
2026-05-06 09:56 3.04331 110.12556 36779 ft 446 kts 69°
2026-05-06 09:57 3.06569 110.18341 36781 ft 446 kts 69°
2026-05-06 09:57 3.08820 110.24123 36781 ft 446 kts 69°
2026-05-06 09:58 3.11066 110.29911 36780 ft 446 kts 69°
2026-05-06 09:58 3.13310 110.35700 36782 ft 446 kts 69°
2026-05-06 09:59 3.15555 110.41495 36789 ft 446 kts 69°
2026-05-06 09:59 3.17794 110.47286 36789 ft 446 kts 69°
2026-05-06 10:00 3.20033 110.53075 36790 ft 446 kts 69°
2026-05-06 10:00 3.22270 110.58864 36791 ft 446 kts 69°
2026-05-06 10:01 3.24509 110.64655 36791 ft 446 kts 69°
2026-05-06 10:01 3.26742 110.70448 36790 ft 446 kts 69°
2026-05-06 10:02 3.28981 110.76239 36791 ft 446 kts 69°
2026-05-06 10:02 3.31215 110.82032 36790 ft 446 kts 69°
2026-05-06 10:03 3.33457 110.87827 36791 ft 446 kts 69°
2026-05-06 10:03 3.35314 110.92637 36793 ft 446 kts 69°
2026-05-06 10:04 3.37914 110.99362 36791 ft 446 kts 69°
2026-05-06 10:04 3.40150 111.05148 36789 ft 446 kts 69°
2026-05-06 10:05 3.42024 111.10000 36790 ft 446 kts 69°
2026-05-06 10:05 3.44627 111.16719 36790 ft 446 kts 69°
2026-05-06 10:06 3.46501 111.21569 36789 ft 446 kts 69°
2026-05-06 10:06 3.48738 111.27353 36790 ft 445 kts 69°
2026-05-06 10:07 3.50968 111.33131 36790 ft 445 kts 69°
2026-05-06 10:07 3.53195 111.38912 36791 ft 445 kts 69°
2026-05-06 10:08 3.55425 111.44694 36792 ft 445 kts 69°
2026-05-06 10:08 3.57652 111.50476 36782 ft 445 kts 70°
2026-05-06 10:09 3.59870 111.56262 36780 ft 445 kts 69°
2026-05-06 10:09 3.62068 111.62006 36782 ft 445 kts 69°
2026-05-06 10:10 3.64295 111.67787 36782 ft 445 kts 69°
2026-05-06 10:10 3.66512 111.73563 36781 ft 444 kts 70°
2026-05-06 10:11 3.68721 111.79339 36780 ft 444 kts 69°
2026-05-06 10:11 3.70955 111.85110 36783 ft 445 kts 69°
2026-05-06 10:12 3.73177 111.90885 36789 ft 445 kts 69°
2026-05-06 10:12 3.75393 111.96662 36789 ft 445 kts 69°
2026-05-06 10:13 3.77615 112.02438 36790 ft 444 kts 69°
2026-05-06 10:13 3.79844 112.08210 36792 ft 445 kts 69°
2026-05-06 10:14 3.82082 112.13979 36791 ft 444 kts 69°
2026-05-06 10:14 3.84307 112.19751 36789 ft 444 kts 69°
2026-05-06 10:15 3.86539 112.25526 36790 ft 445 kts 69°
2026-05-06 10:15 3.88772 112.31293 36792 ft 444 kts 69°
2026-05-06 10:16 3.90994 112.37070 36792 ft 444 kts 70°
2026-05-06 10:16 3.93212 112.42848 36801 ft 445 kts 69°
2026-05-06 10:17 3.95429 112.48629 36800 ft 444 kts 69°
2026-05-06 10:17 3.97651 112.54398 36800 ft 444 kts 69°
2026-05-06 10:18 3.99868 112.60169 36801 ft 445 kts 69°
2026-05-06 10:18 4.02075 112.65949 36800 ft 444 kts 70°
2026-05-06 10:19 4.04274 112.71725 36801 ft 444 kts 70°
2026-05-06 10:19 4.06493 112.77494 36798 ft 444 kts 69°
2026-05-06 10:20 4.08708 112.83272 36801 ft 444 kts 69°
2026-05-06 10:20 4.10911 112.89016 36800 ft 445 kts 69°
2026-05-06 10:21 4.13142 112.94829 36800 ft 444 kts 69°
2026-05-06 10:21 4.15354 113.00570 36802 ft 445 kts 69°
2026-05-06 10:22 4.17581 113.06342 36801 ft 444 kts 69°
2026-05-06 10:22 4.19812 113.12114 36800 ft 445 kts 69°
2026-05-06 10:23 4.22040 113.17895 36806 ft 445 kts 69°
2026-05-06 10:23 4.24256 113.23679 36809 ft 445 kts 69°
2026-05-06 10:24 4.26479 113.29461 36807 ft 445 kts 69°
2026-05-06 10:24 4.28737 113.35226 36807 ft 445 kts 69°
2026-05-06 10:25 4.30971 113.41004 36809 ft 445 kts 69°
2026-05-06 10:25 4.33196 113.46788 36812 ft 445 kts 69°
2026-05-06 10:26 4.35417 113.52570 36809 ft 445 kts 69°
2026-05-06 10:26 4.37636 113.58355 36809 ft 445 kts 69°
2026-05-06 10:27 4.39858 113.64140 36809 ft 445 kts 69°
2026-05-06 10:27 4.42062 113.69931 36815 ft 445 kts 69°
2026-05-06 10:28 4.44290 113.75719 36822 ft 445 kts 69°
2026-05-06 10:28 4.46537 113.81501 36822 ft 445 kts 69°
2026-05-06 10:29 4.48776 113.87284 36824 ft 445 kts 69°
2026-05-06 10:29 4.51000 113.93071 36817 ft 445 kts 69°
2026-05-06 10:30 4.53246 113.98852 36820 ft 445 kts 69°
2026-05-06 10:30 4.55491 114.04633 36822 ft 445 kts 69°
2026-05-06 10:31 4.57730 114.10424 36819 ft 446 kts 69°
2026-05-06 10:31 4.59919 114.16191 36820 ft 446 kts 70°
2026-05-06 10:32 4.62126 114.21999 36813 ft 446 kts 69°
2026-05-06 10:32 4.64343 114.27802 36818 ft 445 kts 69°
2026-05-06 10:33 4.66547 114.33606 36820 ft 446 kts 69°
2026-05-06 10:33 4.68766 114.39404 36820 ft 445 kts 69°
2026-05-06 10:34 4.70970 114.45208 36817 ft 446 kts 69°
2026-05-06 10:34 4.73180 114.51008 36821 ft 445 kts 69°
2026-05-06 10:35 4.75386 114.56810 36820 ft 446 kts 69°
2026-05-06 10:35 4.77580 114.62615 36824 ft 445 kts 69°
2026-05-06 10:36 4.79774 114.68419 36818 ft 445 kts 69°
2026-05-06 10:36 4.81973 114.74226 36820 ft 445 kts 70°
2026-05-06 10:37 4.84180 114.80031 36823 ft 446 kts 69°
2026-05-06 10:37 4.86402 114.85833 36824 ft 446 kts 69°
2026-05-06 10:38 4.88456 114.91693 36823 ft 446 kts 72°
2026-05-06 10:38 4.90377 114.97559 36825 ft 446 kts 72°
2026-05-06 10:39 4.92324 115.03460 36821 ft 446 kts 72°
2026-05-06 10:39 4.94263 115.09361 36817 ft 446 kts 72°
2026-05-06 10:40 4.96193 115.15273 36818 ft 446 kts 72°
2026-05-06 10:40 4.98141 115.21181 36821 ft 446 kts 72°
2026-05-06 10:41 5.00073 115.27094 36817 ft 446 kts 72°
2026-05-06 10:41 5.01998 115.33011 36823 ft 446 kts 72°
2026-05-06 10:42 5.03927 115.38924 36822 ft 446 kts 72°
2026-05-06 10:42 5.05859 115.44836 36819 ft 446 kts 72°
2026-05-06 10:43 5.07803 115.50749 36820 ft 446 kts 72°
2026-05-06 10:44 5.10729 115.59617 36807 ft 447 kts 72°
2026-05-06 10:44 5.12680 115.65532 36809 ft 447 kts 72°
2026-05-06 10:45 5.14615 115.71444 36805 ft 446 kts 72°
2026-05-06 10:45 5.16529 115.77354 36814 ft 446 kts 72°
2026-05-06 10:46 5.18451 115.83266 36810 ft 446 kts 72°
2026-05-06 10:46 5.20356 115.89140 36814 ft 446 kts 72°
2026-05-06 10:47 5.22272 115.95056 36813 ft 446 kts 72°
2026-05-06 10:47 5.24190 116.00973 36807 ft 446 kts 72°
2026-05-06 10:48 5.26108 116.06891 36802 ft 446 kts 72°
2026-05-06 10:48 5.28025 116.12815 36800 ft 446 kts 72°
2026-05-06 10:49 5.29944 116.18737 36803 ft 447 kts 72°
2026-05-06 10:49 5.31862 116.24668 36800 ft 446 kts 72°
2026-05-06 10:50 5.33780 116.30588 36800 ft 446 kts 72°
2026-05-06 10:50 5.35693 116.36516 36801 ft 447 kts 72°
2026-05-06 10:51 5.37612 116.42447 36801 ft 446 kts 72°
2026-05-06 10:51 5.39529 116.48370 36802 ft 446 kts 72°
2026-05-06 10:52 5.41119 116.53301 36802 ft 447 kts 72°
2026-05-06 10:52 5.43035 116.59230 36799 ft 447 kts 72°
2026-05-06 10:53 5.45270 116.66162 36801 ft 447 kts 72°
2026-05-06 10:53 5.46863 116.71090 36801 ft 447 kts 72°
2026-05-06 10:54 5.48776 116.77025 36804 ft 447 kts 72°
2026-05-06 10:54 5.50695 116.82956 36806 ft 446 kts 72°
2026-05-06 10:55 5.52612 116.88888 36808 ft 447 kts 72°
2026-05-06 10:55 5.54521 116.94820 36811 ft 447 kts 72°
2026-05-06 10:56 5.56437 117.00752 36811 ft 447 kts 72°
2026-05-06 10:56 5.58351 117.06686 36808 ft 447 kts 72°
2026-05-06 10:57 5.60260 117.12625 36808 ft 447 kts 72°
2026-05-06 10:57 5.62165 117.18561 36811 ft 447 kts 72°
2026-05-06 10:58 5.64063 117.24496 36813 ft 447 kts 72°
2026-05-06 10:58 5.65951 117.30396 36809 ft 447 kts 72°
2026-05-06 10:59 5.67850 117.36333 36818 ft 446 kts 73°
2026-05-06 10:59 5.69750 117.42267 36821 ft 447 kts 72°
2026-05-06 11:00 5.71652 117.48209 36817 ft 447 kts 73°
2026-05-06 11:00 5.73530 117.54160 36817 ft 447 kts 73°
2026-05-06 11:01 5.75404 117.60105 36817 ft 447 kts 73°
2026-05-06 11:01 5.77287 117.66053 36820 ft 447 kts 73°
2026-05-06 11:02 5.79168 117.71998 36822 ft 447 kts 73°
2026-05-06 11:02 5.81040 117.77951 36818 ft 447 kts 73°
2026-05-06 11:03 5.82915 117.83894 36821 ft 447 kts 73°
2026-05-06 11:03 5.84792 117.89845 36816 ft 447 kts 73°
2026-05-06 11:04 5.86660 117.95798 36820 ft 447 kts 73°
2026-05-06 11:04 5.88538 118.01743 36820 ft 447 kts 73°
2026-05-06 11:05 5.90395 118.07698 36818 ft 446 kts 75°
2026-05-06 11:05 5.91998 118.13726 36820 ft 446 kts 76°
2026-05-06 11:06 5.93586 118.19759 36824 ft 447 kts 76°
2026-05-06 11:06 5.95172 118.25786 36822 ft 447 kts 76°
2026-05-06 11:07 5.96760 118.31822 36821 ft 447 kts 76°
2026-05-06 11:07 5.98341 118.37851 36818 ft 447 kts 76°
2026-05-06 11:08 5.99923 118.43879 36818 ft 447 kts 76°
2026-05-06 11:08 6.01508 118.49924 36820 ft 446 kts 75°
2026-05-06 11:09 6.03087 118.55959 36817 ft 447 kts 76°
2026-05-06 11:09 6.04653 118.62006 36818 ft 447 kts 76°
2026-05-06 11:10 6.06215 118.68050 36818 ft 447 kts 76°
2026-05-06 11:10 6.07783 118.74096 36822 ft 447 kts 76°
2026-05-06 11:11 6.09352 118.80140 36822 ft 447 kts 76°
2026-05-06 11:11 6.10914 118.86178 36824 ft 447 kts 76°
2026-05-06 11:12 6.12480 118.92224 36818 ft 447 kts 76°
2026-05-06 11:12 6.14034 118.98234 36817 ft 447 kts 76°
2026-05-06 11:13 6.15606 119.04321 36817 ft 448 kts 76°
2026-05-06 11:13 6.17166 119.10340 36821 ft 448 kts 76°
2026-05-06 11:14 6.18727 119.16395 36819 ft 448 kts 76°
2026-05-06 11:14 6.20288 119.22455 36822 ft 448 kts 76°
2026-05-06 11:15 6.21854 119.28517 36818 ft 448 kts 76°
2026-05-06 11:15 6.23418 119.34581 36822 ft 448 kts 76°
2026-05-06 11:16 6.24983 119.40648 36819 ft 448 kts 76°
2026-05-06 11:16 6.26544 119.46710 36834 ft 448 kts 76°
2026-05-06 11:17 6.28105 119.52776 36851 ft 448 kts 76°
2026-05-06 11:17 6.29667 119.58843 36852 ft 449 kts 76°
2026-05-06 11:18 6.31226 119.64918 36848 ft 449 kts 76°
2026-05-06 11:18 6.32792 119.70993 36850 ft 449 kts 76°
2026-05-06 11:19 6.34351 119.77068 36850 ft 449 kts 76°
2026-05-06 11:19 6.35913 119.83146 36852 ft 449 kts 76°
2026-05-06 11:20 6.37473 119.89225 36851 ft 449 kts 76°
2026-05-06 11:20 6.39030 119.95298 36859 ft 449 kts 76°
2026-05-06 11:21 6.40591 120.01379 36860 ft 449 kts 76°
2026-05-06 11:21 6.42149 120.07458 36860 ft 449 kts 76°
2026-05-06 11:22 6.43706 120.13542 36860 ft 449 kts 76°
2026-05-06 11:22 6.45264 120.19622 36860 ft 449 kts 76°
2026-05-06 11:23 6.46820 120.25699 36860 ft 449 kts 76°
2026-05-06 11:23 6.48375 120.31787 36861 ft 449 kts 76°
2026-05-06 11:24 6.49931 120.37866 36860 ft 449 kts 76°
2026-05-06 11:24 6.51487 120.43946 36860 ft 449 kts 76°
2026-05-06 11:25 6.53038 120.50029 36863 ft 449 kts 76°
2026-05-06 11:25 6.54592 120.56109 36871 ft 449 kts 76°
2026-05-06 11:26 6.56142 120.62188 36869 ft 449 kts 76°
2026-05-06 11:26 6.57684 120.68231 36867 ft 449 kts 76°
2026-05-06 11:27 6.59225 120.74314 36871 ft 449 kts 76°
2026-05-06 11:27 6.60764 120.80403 36871 ft 449 kts 76°
2026-05-06 11:28 6.62308 120.86482 36869 ft 449 kts 76°
2026-05-06 11:28 6.63856 120.92564 36870 ft 449 kts 76°
2026-05-06 11:29 6.65403 120.98651 36870 ft 449 kts 76°
2026-05-06 11:29 6.66955 121.04733 36871 ft 449 kts 76°
2026-05-06 11:30 6.68512 121.10819 36871 ft 449 kts 76°
2026-05-06 11:30 6.70060 121.16901 36880 ft 449 kts 76°
2026-05-06 11:31 6.71601 121.22984 36882 ft 449 kts 76°
2026-05-06 11:31 6.73144 121.29069 36882 ft 449 kts 76°
2026-05-06 11:32 6.74686 121.35158 36880 ft 449 kts 76°
2026-05-06 11:32 6.76231 121.41250 36876 ft 449 kts 76°
2026-05-06 11:33 6.77770 121.47337 36880 ft 449 kts 76°
2026-05-06 11:33 6.79315 121.53428 36880 ft 449 kts 76°
2026-05-06 11:34 6.80852 121.59513 36879 ft 449 kts 76°
2026-05-06 11:34 6.82391 121.65600 36880 ft 449 kts 76°
2026-05-06 11:35 6.83917 121.71683 36878 ft 449 kts 76°
2026-05-06 11:35 6.85450 121.77783 36880 ft 449 kts 76°
2026-05-06 11:36 6.86987 121.83876 36875 ft 449 kts 76°
2026-05-06 11:36 6.88523 121.89965 36881 ft 448 kts 76°
2026-05-06 11:37 6.90052 121.96045 36881 ft 448 kts 76°
2026-05-06 11:37 6.91585 122.02127 36881 ft 448 kts 76°
2026-05-06 11:38 6.92783 122.08276 36880 ft 448 kts 83°
2026-05-06 11:38 6.93365 122.13461 36880 ft 448 kts 84°
2026-05-06 11:39 6.94068 122.19694 36881 ft 448 kts 84°
2026-05-06 11:39 6.94781 122.25930 36882 ft 448 kts 83°
2026-05-06 11:40 6.95611 122.33172 36882 ft 448 kts 83°
2026-05-06 11:40 6.96211 122.38394 36882 ft 448 kts 83°
2026-05-06 11:41 6.96920 122.44628 36880 ft 448 kts 83°
2026-05-06 11:41 6.97641 122.50860 36881 ft 448 kts 83°
2026-05-06 11:42 6.98359 122.57096 36880 ft 448 kts 83°
2026-05-06 11:42 6.99067 122.63326 36881 ft 448 kts 83°
2026-05-06 11:43 6.99774 122.69560 36874 ft 448 kts 83°
2026-05-06 11:43 7.00477 122.75792 36872 ft 448 kts 84°
2026-05-06 11:44 7.01538 122.85141 36845 ft 447 kts 84°
2026-05-06 11:44 7.01893 122.88236 36470 ft 445 kts 83°
2026-05-06 11:44 7.02246 122.91339 36177 ft 447 kts 83°
2026-05-06 11:45 7.02603 122.94463 35917 ft 451 kts 83°
2026-05-06 11:45 7.02965 122.97618 35668 ft 455 kts 83°
2026-05-06 11:45 7.03327 123.00792 35420 ft 457 kts 83°
2026-05-06 11:45 7.03684 123.03973 35172 ft 458 kts 84°
2026-05-06 11:46 7.04041 123.07159 34921 ft 459 kts 83°
2026-05-06 11:46 7.04401 123.10349 34670 ft 459 kts 83°
2026-05-06 11:46 7.04765 123.13544 34417 ft 460 kts 83°
2026-05-06 11:46 7.05125 123.16744 34168 ft 460 kts 83°
2026-05-06 11:47 7.05484 123.19947 33918 ft 461 kts 83°
2026-05-06 11:47 7.05844 123.23157 33662 ft 462 kts 83°
2026-05-06 11:47 7.06206 123.26368 33419 ft 462 kts 83°
2026-05-06 11:47 7.06566 123.29584 33174 ft 463 kts 83°
2026-05-06 11:48 7.06926 123.32806 32916 ft 463 kts 83°
2026-05-06 11:48 7.07287 123.36030 32666 ft 464 kts 83°
2026-05-06 11:48 7.07651 123.39261 32416 ft 465 kts 83°
2026-05-06 11:48 7.08015 123.42489 32164 ft 464 kts 83°
2026-05-06 11:49 7.08378 123.45705 31911 ft 462 kts 83°
2026-05-06 11:49 7.08740 123.48915 31655 ft 460 kts 83°
2026-05-06 11:49 7.09098 123.52109 31406 ft 458 kts 83°
2026-05-06 11:49 7.09453 123.55294 31152 ft 457 kts 83°
2026-05-06 11:50 7.09808 123.58467 30904 ft 455 kts 83°
2026-05-06 11:50 7.10160 123.61624 30654 ft 453 kts 83°
2026-05-06 11:50 7.10507 123.64732 30407 ft 452 kts 83°
2026-05-06 11:50 7.10863 123.67909 30153 ft 450 kts 83°
2026-05-06 11:51 7.11211 123.71035 29903 ft 448 kts 83°
2026-05-06 11:51 7.11552 123.74103 29656 ft 447 kts 83°
2026-05-06 11:51 7.11901 123.77243 29402 ft 445 kts 83°
2026-05-06 11:51 7.12239 123.80289 29155 ft 443 kts 83°
2026-05-06 11:52 7.12586 123.83409 28902 ft 441 kts 83°
2026-05-06 11:52 7.12921 123.86431 28655 ft 439 kts 83°
2026-05-06 11:52 7.13265 123.89522 28402 ft 438 kts 83°
2026-05-06 11:52 7.13601 123.92565 28144 ft 436 kts 83°
2026-05-06 11:53 7.13934 123.95550 27917 ft 434 kts 83°
2026-05-06 11:53 7.14270 123.98565 27660 ft 433 kts 83°
2026-05-06 11:53 7.14606 124.01570 27404 ft 431 kts 83°
2026-05-06 11:53 7.14937 124.04559 27154 ft 429 kts 83°
2026-05-06 11:54 7.15269 124.07577 26900 ft 427 kts 83°
2026-05-06 11:54 7.15591 124.10499 26652 ft 425 kts 83°
2026-05-06 11:54 7.15919 124.13455 26400 ft 424 kts 83°
2026-05-06 11:54 7.16242 124.16398 26151 ft 422 kts 83°
2026-05-06 11:55 7.16565 124.19330 25900 ft 420 kts 83°
2026-05-06 11:55 7.16944 124.22283 25647 ft 419 kts 81°
2026-05-06 11:55 7.17369 124.25137 25399 ft 417 kts 81°
2026-05-06 11:55 7.17799 124.28022 25149 ft 416 kts 81°
2026-05-06 11:56 7.18226 124.30895 24897 ft 414 kts 81°
2026-05-06 11:56 7.18650 124.33753 24648 ft 412 kts 81°
2026-05-06 11:56 7.19071 124.36603 24396 ft 411 kts 81°
2026-05-06 11:56 7.19495 124.39439 24145 ft 409 kts 81°
2026-05-06 11:57 7.19917 124.42269 23895 ft 407 kts 81°
2026-05-06 11:57 7.20333 124.45083 23644 ft 406 kts 81°
2026-05-06 11:57 7.20750 124.47888 23395 ft 404 kts 81°
2026-05-06 11:57 7.21163 124.50679 23143 ft 402 kts 81°
2026-05-06 11:58 7.21573 124.53461 22890 ft 401 kts 81°
2026-05-06 11:58 7.21982 124.56229 22641 ft 399 kts 81°
2026-05-06 11:58 7.22391 124.58984 22389 ft 397 kts 81°
2026-05-06 11:58 7.22796 124.61726 22138 ft 395 kts 81°
2026-05-06 11:59 7.23197 124.64457 21888 ft 393 kts 81°
2026-05-06 11:59 7.23597 124.67177 21645 ft 392 kts 81°
2026-05-06 11:59 7.23996 124.69888 21387 ft 390 kts 81°
2026-05-06 11:59 7.24395 124.72586 21136 ft 389 kts 81°
2026-05-06 12:00 7.24791 124.75270 20886 ft 387 kts 81°
2026-05-06 12:00 7.25187 124.77945 20636 ft 385 kts 81°
2026-05-06 12:00 7.25579 124.80605 20387 ft 383 kts 81°
2026-05-06 12:00 7.25967 124.83255 20136 ft 382 kts 81°
2026-05-06 12:01 7.26357 124.85894 19888 ft 380 kts 81°
2026-05-06 12:01 7.26747 124.88521 19638 ft 378 kts 81°
2026-05-06 12:01 7.27133 124.91142 19382 ft 377 kts 81°
2026-05-06 12:01 7.27514 124.93744 19137 ft 376 kts 81°
2026-05-06 12:02 7.27893 124.96345 18884 ft 374 kts 81°
2026-05-06 12:02 7.28273 124.98930 18634 ft 373 kts 81°
2026-05-06 12:02 7.28652 125.01507 18384 ft 371 kts 81°
2026-05-06 12:02 7.29030 125.04074 18133 ft 370 kts 81°
2026-05-06 12:03 7.29404 125.06629 17823 ft 368 kts 81°
2026-05-06 12:03 7.29775 125.09167 17400 ft 365 kts 81°
2026-05-06 12:03 7.30148 125.11691 16916 ft 364 kts 81°
2026-05-06 12:03 7.30516 125.14209 16414 ft 364 kts 81°
2026-05-06 12:04 7.30881 125.16701 15913 ft 364 kts 81°
2026-05-06 12:04 7.31244 125.19194 15543 ft 355 kts 81°
2026-05-06 12:04 7.31811 125.21550 15299 ft 340 kts 66°
2026-05-06 12:04 7.33022 125.23521 15060 ft 324 kts 52°
2026-05-06 12:05 7.34430 125.25225 14908 ft 310 kts 49°
2026-05-06 12:05 7.35816 125.26823 14759 ft 296 kts 49°
2026-05-06 12:05 7.37147 125.28346 14614 ft 283 kts 49°
2026-05-06 12:05 7.38420 125.29801 14480 ft 270 kts 49°
2026-05-06 12:06 7.39643 125.31199 14228 ft 263 kts 49°
2026-05-06 12:06 7.40844 125.32571 13871 ft 261 kts 48°
2026-05-06 12:06 7.42036 125.33936 13482 ft 258 kts 49°
2026-05-06 12:06 7.43219 125.35291 13082 ft 257 kts 49°
2026-05-06 12:07 7.44397 125.36641 12702 ft 256 kts 49°
2026-05-06 12:07 7.45563 125.37979 12320 ft 254 kts 49°
2026-05-06 12:07 7.46724 125.39316 11932 ft 253 kts 49°
2026-05-06 12:07 7.47878 125.40643 11553 ft 251 kts 49°
2026-05-06 12:08 7.49027 125.41966 11179 ft 250 kts 49°
2026-05-06 12:08 7.50088 125.43347 10787 ft 249 kts 63°
2026-05-06 12:08 7.50520 125.45023 10380 ft 250 kts 85°
2026-05-06 12:08 7.50587 125.46770 9997 ft 249 kts 88°
2026-05-06 12:09 7.50608 125.48507 9599 ft 248 kts 88°
2026-05-06 12:09 7.50624 125.50238 9222 ft 247 kts 88°
2026-05-06 12:09 7.50639 125.51969 8835 ft 246 kts 88°
2026-05-06 12:09 7.50654 125.53685 8472 ft 245 kts 88°
2026-05-06 12:10 7.50668 125.55403 8104 ft 244 kts 88°
2026-05-06 12:10 7.50627 125.57108 7740 ft 243 kts 99°
2026-05-06 12:10 7.50011 125.58681 7358 ft 243 kts 125°
2026-05-06 12:10 7.48807 125.59860 6970 ft 243 kts 142°
2026-05-06 12:11 7.47449 125.60867 6606 ft 242 kts 143°
2026-05-06 12:11 7.46095 125.61872 6255 ft 241 kts 142°
2026-05-06 12:11 7.44762 125.62881 5901 ft 239 kts 142°
2026-05-06 12:11 7.43439 125.63894 5554 ft 238 kts 142°
2026-05-06 12:12 7.42131 125.64903 5258 ft 234 kts 142°
2026-05-06 12:12 7.40861 125.65885 5012 ft 227 kts 141°
2026-05-06 12:12 7.39617 125.66846 4667 ft 224 kts 142°
2026-05-06 12:12 7.38384 125.67804 4309 ft 221 kts 141°
2026-05-06 12:13 7.37163 125.68749 4027 ft 222 kts 141°
2026-05-06 12:13 7.35938 125.69699 3980 ft 222 kts 141°
2026-05-06 12:13 7.34717 125.70650 3980 ft 222 kts 141°
2026-05-06 12:13 7.33495 125.71602 3987 ft 222 kts 141°
2026-05-06 12:14 7.32300 125.72553 3989 ft 222 kts 139°
2026-05-06 12:14 7.31134 125.73565 3990 ft 222 kts 138°
2026-05-06 12:14 7.29967 125.74586 3966 ft 222 kts 138°
2026-05-06 12:14 7.28802 125.75603 3871 ft 222 kts 138°
2026-05-06 12:15 7.27634 125.76614 3755 ft 221 kts 138°
2026-05-06 12:15 7.26430 125.77558 3524 ft 219 kts 150°
2026-05-06 12:15 7.24988 125.77956 3183 ft 215 kts 181°
2026-05-06 12:15 7.23616 125.77532 2934 ft 204 kts 216°
2026-05-06 12:16 7.22639 125.76552 2650 ft 197 kts 233°
2026-05-06 12:16 7.21810 125.75465 2307 ft 195 kts 232°
2026-05-06 12:16 7.20965 125.74406 1990 ft 191 kts 230°
2026-05-06 12:16 7.20108 125.73381 1947 ft 192 kts 229°
2026-05-06 12:17 7.19236 125.72358 1945 ft 193 kts 229°
2026-05-06 12:17 7.18383 125.71368 1737 ft 174 kts 229°
2026-05-06 12:17 7.17647 125.70515 1456 ft 147 kts 229°
2026-05-06 12:17 7.17016 125.69782 1208 ft 136 kts 229°
2026-05-06 12:18 7.16405 125.69063 1028 ft 134 kts 230°
2026-05-06 12:18 7.15821 125.68332 872 ft 133 kts 230°
2026-05-06 12:18 7.15186 125.67623 697 ft 138 kts 226°
2026-05-06 12:18 7.14567 125.66905 518 ft 133 kts 230°
2026-05-06 12:19 7.13962 125.66199 324 ft 133 kts 229°
2026-05-06 12:19 7.13355 125.65501 129 ft 133 kts 229°
2026-05-06 12:19 7.12794 125.64852 107 ft 97 kts 229°
2026-05-06 12:19 7.12581 125.64605 106 ft 12 kts 230°
2026-05-06 12:20 7.12572 125.64562 106 ft 7 kts 287°
2026-05-06 12:20 7.12609 125.64519 106 ft 10 kts 321°
2026-05-06 12:20 7.12670 125.64469 106 ft 7 kts 321°
2026-05-06 12:20 7.12700 125.64445 106 ft 6 kts 326°
2026-05-06 12:21 7.12707 125.64442 106 ft 1 kts 346°
2026-05-06 12:21 7.12728 125.64444 106 ft 5 kts 17°
2026-05-06 12:21 7.12760 125.64471 106 ft 8 kts 47°
2026-05-06 12:21 7.12800 125.64519 105 ft 10 kts 50°
2026-05-06 12:22 7.12854 125.64582 107 ft 13 kts 49°
2026-05-06 12:22 7.12905 125.64641 107 ft 10 kts 48°
2026-05-06 12:22 7.12937 125.64643 107 ft 2 kts 318°
2026-05-06 12:22 7.12956 125.64627 107 ft 5 kts 320°
2026-05-06 12:23 7.12987 125.64600 107 ft 2 kts 320°
2026-05-06 12:23 7.12989 125.64599 107 ft 0 kts 320°